Regional Weather Roundup
Issued by NWS

Home | Current Version | Previous Version | Text Only | Print | Product List | Glossary On
Versions: 1 2 3 4 5 6 7 8 9 10 11 12 13 14 15 16 17 18 19 20 21 22 23 24 25 26 27 28 29 30 31 32 33 34 35 36 37 38 39 40 41 42 43 44 45 46 47 48 49 50
000
ASUS45 KPSR 012110
RWRAZ

ARIZONA REGIONAL HOURLY WEATHER ROUNDUP
NATIONAL WEATHER SERVICE PHOENIX AZ
200 PM MST MON SEP 01 2014

NOTE: FAIR INDICATES FEW OR NO CLOUDS BELOW 12,000 FEET WITH NO
SIGNIFICANT WEATHER AND/OR OBSTRUCTIONS TO VISIBILITY.

AZZ001>003-036-012200-
NORTHWEST ARIZONA

CITY           SKY/WX    TMP DP  RH WIND       PRES   REMARKS
BULLHEAD CITY  SUNNY    106  41  11 S15G21    29.73F HX 100
KINGMAN        SUNNY     97  38  13 SW21      29.94F
$$

AZZ004>008-015-016-018-012200-
NORTH CENTRAL ARIZONA

CITY           SKY/WX    TMP DP  RH WIND       PRES   REMARKS
GRAND CANYON   SUNNY     82  37  20 S9        30.19F
WILLIAMS       SUNNY     77  39  25 SW10      30.28S
PRESCOTT       SUNNY     86  44  23 E6        30.09F
FLAGSTAFF      SUNNY     78  41  26 SW15G24   30.23F
PAYSON         SUNNY     86  37  17 NW7G17    30.13F
PAGE           SUNNY     95  35  12 MISG      29.96F
$$

AZZ009>014-017-012200-
NORTHEAST ARIZONA

CITY           SKY/WX    TMP DP  RH WIND       PRES   REMARKS
WINSLOW        SUNNY     92  39  15 S6        30.05F
SAINT JOHNS    SUNNY     89  29  11 W13G21    30.11F
WINDOW ROCK    SUNNY     86  33  15 W12G18    30.18
SHOW LOW       SUNNY     81  32  17 SW8       30.21F
$$

AZZ023-012200-
GREATER PHOENIX AREA

CITY           SKY/WX    TMP DP  RH WIND       PRES   REMARKS
PHOENIX        SUNNY    105  41  11 MISG      29.77F HX 100
BUCKEYE          N/A    102  41  12 E5        29.78F
GLENDALE       SUNNY    104  39  11 E5        29.79F
LUKE AFB       NOT AVBL
DEER VALLEY    SUNNY    100  37  11 S5        29.80F
SCOTTSDALE     SUNNY    102  41  12 CALM      29.82F
MESA-FALCON    SUNNY    104  36   9 SE5       29.80F
MESA-GATEWAY   SUNNY    100  39  12 VRB6      29.82F
CHANDLER       SUNNY    102  43  13 S7        29.80F
$$

AZZ027-028-012200-
SOUTHWEST MARICOPA COUNTY AND PINAL COUNTY

CITY           SKY/WX    TMP DP  RH WIND       PRES   REMARKS
CASA GRANDE    SUNNY    102  48  16 CALM      29.82F
$$

AZZ503-504-507>509-012200-
SOUTHEAST ARIZONA

CITY           SKY/WX    TMP DP  RH WIND       PRES   REMARKS
TUCSON         SUNNY    100  42  13 W6        29.92F
DAVIS-MONTHAN  SUNNY     97  44  16 VRB1      29.90F
NOGALES        SUNNY     94  51  23 NW9       30.01F
SIERRA VISTA   SUNNY     92  40  16 NW9G17    30.07F
DOUGLAS        SUNNY     93  45  19 W8        30.02F
SAFFORD        SUNNY     97  36  12 NW15      29.93F
$$

AZZ020-021-025-026-031-012200-
SOUTHWEST ARIZONA

CITY           SKY/WX    TMP DP  RH WIND       PRES   REMARKS
YUMA           SUNNY    106  49  14 VRB3      29.69F HX 103
$$

CAZ031-033-041-043-047-048-061-012200-
SOUTHERN CALIFORNIA

CITY           SKY/WX    TMP DP  RH WIND       PRES   REMARKS
DOWNTOWN L.A.  SUNNY     84  63  49 VRB5      29.79F
L.A. AIRPORT   MOSUNNY   78  64  61 W9        29.82S
SAN DIEGO      MOSUNNY   74  61  63 SW9       29.83F
BURBANK        SUNNY     87  57  35 S9        29.81S
ONTARIO        MOSUNNY   94  43  17 NW7       29.80F
RIVERSIDE      SUNNY     94  48  20 VRB6      29.79F
PALM SPRINGS   SUNNY    103  38  10 E8        29.73F
IMPERIAL       SUNNY    105  45  13 E7        29.67F HX 101
BLYTHE         SUNNY    104  49  15 VRB6G18   29.71F HX 101
NEEDLES        SUNNY    107  42  11 S10G20    29.73F HX 102
$$

NVZ020-UTZ003-012200-
SOUTHERN NEVADA-UTAH

CITY           SKY/WX    TMP DP  RH WIND       PRES   REMARKS
LAS VEGAS      SUNNY    104  39  10 E8        29.78F
SALT LAKE CITY MOSUNNY   78  37  22 N7        30.07F
$$

NMZ009-TXZ055-012200-
NEW MEXICO-WEST TEXAS

CITY           SKY/WX    TMP DP  RH WIND       PRES   REMARKS
ALBUQUERQUE    MOSUNNY   90  37  15 SW12      30.06F
EL PASO        MOSUNNY   98  38  12 SW17      29.96F
$$


........................KEY........................
SKY/WX - SKY CONDITION/WEATHER
TMP    - TEMPERATURE IN FAHRENHEIT
DP     - DEW POINT IN FAHRENHEIT
RH     - RELATIVE HUMIDITY IN PERCENT
WIND   - DIRECTION AND SPEED IN MILES PER HOUR (MPH)
VRB    - VARIABLE WIND DIRECTION
PRES   - MEAN SEA LEVEL PRESSURE IN INCHES OF MERCURY
         F - FALLING PRESSURE   R - RISING PRESSURE
         S - STEADY PRESSURE
VSB    - VISIBILITY IN MILES
HX     - HEAT INDEX IN FAHRENHEIT
WCI    - WIND CHILL INDEX IN FAHRENHEIT
TC     - TEMPERATURE IN CELSIUS WHICH IS ALSO KNOWN AS
         TEMPERATURE IN CENTIGRADE
AFB    - AIR FORCE BASE
         LUKE AFB IS LUKE AIR FORCE BASE
         DAVIS-MONTHAN IS DAVIS-MONTHAN AIR FORCE BASE
NAS    - NAVAL AIR STATION
         EL CENTRO NAS IS EL CENTRO NAVAL AIR STATION
N/A    - NOT AVAILABLE


USA.gov is the U.S. government's official web portal to all federal, state and local government web resources and services.